Wind_Speed
16 13 13 13 13 13 14 15 16 16 18 19 19 19 20 19 19 18 17 15 14 13 11 9 9 8 7 5 3 4 4 4 3 2 5 7 13 7 2 4 9 5 8 6 6 7 8
16 14 14 14 14 15 15 14 15 15 17 17 17 18 18 19 19 20 20 19 18 17 16 14 13 12 12 10 7 4 8 5 6 4 1 4 8 12 7 5 1 7 8 7 8 9 9
17 16 16 16 16 16 16 16 16 17 17 18 18 19 19 19 19 19 20 19 19 20 20 19 17 17 16 11 12 10 8 10 7 7 5 4 3 8 3 2 6 8 8 8 8 9 10
18 18 18 19 19 20 20 20 20 20 20 20 20 20 19 19 19 19 21 21 21 20 20 20 20 20 21 18 16 15 12 10 12 9 9 6 5 6 9 4 4 4 7 8 7 8 9
19 19 19 20 21 22 22 23 23 23 23 23 22 20 20 20 20 19 20 20 20 21 22 21 21 21 23 22 22 20 17 15 13 12 11 10 8 8 7 3 2 5 19 4 3 3 6
19 19 19 21 22 24 25 25 24 24 23 23 22 21 20 20 20 20 20 20 20 21 21 21 22 22 23 24 22 24 23 18 16 15 15 12 11 10 8 2 21 5 2 2 5 7 4
20 19 19 19 20 21 22 22 22 22 21 20 20 20 20 19 19 19 19 19 20 20 21 22 20 23 21 24 25 26 26 23 20 18 17 16 16 12 7 10 6 7 5 5 9 11 5
17 16 15 12 11 11 12 13 14 14 15 17 17 17 17 17 17 16 17 18 19 19 20 20 21 22 21 23 25 27 27 25 24 21 20 19 19 14 14 27 15 13 6 8 14 11 9
13 12 10 9 10 11 11 10 10 9 9 11 11 11 11 12 12 12 12 13 15 18 19 20 20 21 19 22 22 26 27 25 24 26 25 22 16 18 25 20 16 11 10 6 11 13 11
10 11 12 14 15 15 14 13 12 11 10 10 10 9 10 10 10 9 8 8 9 12 14 19 19 19 19 20 21 21 23 27 29 28 28 26 22 27 22 21 14 9 15 24 15 8 12
14 15 17 19 20 20 20 19 17 16 15 14 14 12 12 11 11 10 10 9 8 8 4 17 13 13 18 18 21 18 21 26 27 29 33 28 28 25 30 21 17 17 20 16 15 11 8
14 15 16 18 19 19 19 19 18 18 20 20 20 19 17 16 15 15 14 13 11 10 6 11 11 13 17 18 17 17 18 20 24 30 33 32 22 29 28 24 22 21 23 21 12 9 9
16 17 19 20 22 22 22 22 21 20 20 20 20 22 23 22 21 19 19 17 15 10 13 13 10 10 13 17 20 16 16 17 18 22 26 29 36 32 35 32 28 32 23 12 12 11 11
21 22 23 24 24 25 25 25 25 24 24 23 22 23 23 22 23 23 22 20 18 15 12 14 9 8 11 15 18 17 17 16 17 18 14 19 24 29 37 37 27 30 25 18 15 13 14
25 26 26 27 27 28 28 29 30 30 29 29 27 26 25 25 25 24 24 23 18 18 21 16 14 10 11 15 14 18 19 17 18 16 19 14 19 17 31 35 37 26 29 24 22 22 20
26 28 29 30 30 32 33 34 35 35 34 33 33 32 30 29 28 27 26 22 26 25 22 21 17 14 14 14 15 17 17 18 18 21 19 14 14 20 19 31 39 37 20 27 27 27 24
30 31 33 34 34 35 36 37 39 40 41 39 38 37 34 34 32 31 28 26 30 27 25 25 22 18 17 16 17 15 13 14 18 20 21 20 11 15 21 26 30 38 39 28 25 27 25
32 34 36 36 37 39 40 40 40 41 43 43 42 42 36 36 36 34 32 33 32 29 30 28 28 24 23 16 20 16 14 14 17 18 17 19 13 16 15 16 25 29 29 34 27 28 28
35 37 38 39 40 39 39 41 42 42 42 43 43 41 42 38 36 39 37 39 34 34 32 32 31 30 28 25 21 19 17 17 24 19 15 15 17 13 12 18 20 27 28 26 28 26 28
37 38 38 38 40 40 39 37 35 33 32 30 31 34 36 38 41 42 44 45 36 40 38 37 35 36 34 30 25 20 21 28 23 21 22 20 16 12 12 12 17 21 29 24 26 26 26
37 38 39 39 36 30 26 26 26 24 20 18 18 21 22 24 29 35 43 46 44 44 42 42 39 39 34 34 31 25 22 22 23 25 21 21 13 13 17 18 17 19 20 26 24 25 24
39 39 33 28 24 23 22 24 26 27 27 23 24 24 23 25 25 23 27 39 45 46 47 47 42 41 41 42 35 26 29 20 24 27 24 23 18 17 15 18 13 15 18 19 23 22 25
36 28 25 24 23 25 27 26 28 31 32 35 35 33 34 33 29 30 31 27 35 48 47 45 51 53 53 51 48 47 45 43 34 25 24 23 19 15 18 15 14 13 16 16 19 23 21
26 24 24 24 27 30 32 33 33 33 30 32 34 35 36 37 39 38 38 36 36 33 44 50 54 54 50 50 48 44 43 43 40 32 21 21 22 18 16 16 21 12 12 15 16 16 17
25 24 26 30 33 35 39 37 36 37 39 41 42 44 44 43 45 45 42 43 40 40 34 45 48 55 54 50 47 46 47 46 45 41 35 19 17 20 19 20 17 17 20 22 18 18 19
26 28 33 36 40 44 43 43 43 47 48 49 50 52 54 53 52 48 43 42 44 43 42 38 46 51 54 50 52 52 52 47 48 45 36 28 28 23 22 25 23 15 20 23 22 14 22
31 35 39 43 43 44 46 48 47 47 50 53 53 50 52 52 53 54 51 50 47 46 44 46 41 46 49 51 51 51 52 41 38 39 37 38 35 31 26 25 23 36 39 25 19 18 19
35 39 41 43 46 46 47 49 51 52 52 51 51 50 50 50 46 46 49 51 52 51 49 48 43 42 48 50 51 49 52 38 35 38 39 37 37 34 29 29 21 34 28 18 21 25 23
39 41 44 43 43 46 48 50 48 47 45 46 47 48 47 47 47 48 46 46 50 52 51 49 49 45 49 51 50 48 40 36 37 37 37 38 36 33 29 23 37 36 38 36 27 28 22
Wind_Direction
272 272 275 279 279 276 274 275 277 277 277 276 274 274 274 274 272 271 271 269 266 263 261 256 252 254 252 256 237 210 182 165 148 79 31 73 82 106 152 111 83 94 84 93 114 115 101
271 275 279 280 281 281 280 281 280 282 283 281 281 282 279 276 274 272 271 269 267 265 263 258 257 254 254 249 241 225 201 186 191 171 107 88 100 133 151 89 275 113 104 97 96 97 95
275 278 280 282 283 284 286 286 286 284 284 285 284 282 280 278 276 274 273 270 268 266 264 260 256 256 255 259 238 232 219 198 199 196 175 135 123 125 143 48 132 118 99 90 85 89 92
276 278 281 284 286 288 288 289 288 288 288 285 283 281 279 279 278 276 274 272 272 268 265 262 258 253 255 249 244 234 230 208 201 202 193 179 158 132 133 202 127 110 110 39 66 77 85
276 279 284 287 288 289 289 288 287 286 285 284 282 281 280 278 275 274 274 273 270 268 266 263 259 254 252 249 245 238 231 221 206 206 202 199 183 155 170 134 207 204 134 241 65 45 85
278 281 284 285 287 288 287 285 283 281 278 275 274 277 278 278 278 274 272 272 270 266 264 261 257 253 248 244 243 241 234 225 211 203 208 204 188 169 191 203 222 154 243 176 260 298 144
277 279 283 287 290 291 288 283 279 277 276 274 272 275 278 280 280 278 273 269 267 263 262 260 259 254 249 242 234 236 234 221 216 206 208 208 198 195 228 233 284 208 205 213 248 237 192
274 278 283 289 303 318 320 311 298 288 282 279 279 282 283 285 285 283 278 274 269 269 266 262 258 253 250 247 237 232 232 225 215 209 209 213 207 196 203 225 227 217 208 257 245 224 209
271 269 269 285 304 315 322 324 319 310 299 290 289 290 290 290 289 291 289 286 280 274 267 263 259 253 248 247 241 236 228 225 215 211 209 209 221 197 222 224 213 216 193 221 211 248 238
273 272 279 287 292 294 297 301 304 302 299 296 294 294 292 292 295 297 302 308 303 292 279 262 258 251 242 244 242 239 227 221 216 209 208 216 187 217 225 213 219 193 222 236 237 245 265
280 281 283 284 286 287 288 287 286 286 285 285 286 287 285 285 286 286 290 297 306 312 345 292 268 246 238 234 241 235 228 224 219 210 210 217 214 225 220 215 219 199 243 237 239 235 282
294 293 293 293 292 291 290 289 288 285 283 280 279 280 280 280 281 280 279 284 290 296 286 296 280 250 237 235 236 233 228 222 216 214 215 211 230 223 222 218 221 213 238 226 227 246 252
293 295 295 295 294 294 293 292 291 289 287 285 281 278 276 275 275 277 275 274 277 272 280 292 289 261 238 234 241 238 230 225 221 222 220 222 223 223 221 220 228 219 221 225 239 234 250
295 295 295 293 291 289 289 290 290 290 289 287 286 283 281 280 275 271 269 269 266 258 252 265 270 261 242 233 233 240 239 233 220 210 209 231 235 227 223 223 220 224 220 214 218 221 244
294 293 294 294 294 292 288 284 283 283 282 282 280 279 279 279 274 271 264 261 263 251 253 257 251 237 225 219 226 232 233 235 229 220 211 227 236 230 233 225 225 218 231 218 225 231 228
299 298 298 298 296 293 290 288 285 283 282 280 279 276 277 275 271 268 265 258 249 256 256 250 237 242 216 225 233 224 228 230 223 225 211 222 220 227 231 227 223 220 218 228 220 234 235
298 297 296 295 294 292 290 289 286 284 282 281 278 277 275 272 269 264 261 255 250 251 249 246 233 211 212 230 228 213 214 225 219 226 218 207 211 243 235 230 225 228 218 217 219 232 226
299 299 298 298 296 294 293 291 289 286 283 281 280 277 276 266 261 260 255 251 254 246 243 242 239 235 216 202 227 207 206 217 245 204 222 215 215 236 254 255 237 227 231 228 227 221 224
301 301 301 301 298 296 294 292 289 286 282 279 274 270 268 260 251 247 245 249 246 241 238 238 234 233 222 205 214 208 223 219 231 203 197 212 216 221 225 246 242 230 220 229 226 227 231
302 303 302 300 298 297 295 292 288 285 283 280 275 272 263 255 246 240 242 243 241 238 234 235 233 229 229 220 208 208 210 237 222 205 208 195 205 212 222 267 260 256 225 217 215 227 232
305 304 303 301 301 300 299 296 291 284 272 274 278 272 273 274 265 252 242 238 231 230 229 230 228 229 225 222 218 218 213 231 228 216 211 214 216 216 232 241 239 241 233 220 221 216 221
305 303 300 298 297 300 298 297 287 280 266 266 273 275 265 271 271 274 263 247 236 228 226 226 223 220 220 223 208 204 222 207 247 227 219 219 223 223 227 238 247 221 226 223 228 226 225
303 299 296 291 289 292 294 301 304 281 277 269 269 266 269 269 268 269 264 262 251 239 230 226 224 220 220 219 215 210 203 196 195 215 241 223 229 223 242 231 237 228 219 216 220 230 231
297 294 290 287 291 292 296 298 296 288 279 273 270 270 266 264 266 267 264 261 258 252 238 234 224 220 226 225 220 218 218 206 203 190 201 221 223 213 233 227 237 221 241 231 231 237 230
297 292 290 291 292 293 294 291 285 281 275 272 269 267 266 266 267 268 262 257 254 251 246 239 232 224 222 221 220 217 217 217 216 217 207 230 207 224 223 226 236 224 230 233 246 249 248
296 295 294 294 293 294 295 294 291 286 281 276 272 269 266 265 261 260 259 255 250 247 244 242 235 232 226 220 217 213 215 218 218 218 218 210 222 219 218 230 222 235 249 221 247 247 236
297 297 298 298 299 298 296 293 289 284 282 279 276 273 268 263 259 255 252 250 249 246 241 241 237 231 229 225 219 214 216 215 219 221 220 217 201 220 229 225 225 238 220 232 244 234 247
305 303 305 304 301 300 298 295 290 286 284 282 279 272 267 262 258 254 250 246 244 241 238 234 232 231 225 224 219 213 213 215 216 220 217 230 221 213 217 224 228 241 254 241 234 243 223
309 310 308 306 305 304 302 298 296 294 291 289 280 271 262 256 252 248 245 243 238 237 235 231 229 230 227 219 215 208 201 199 210 219 221 223 230 223 219 229 231 234 233 244 245 243 237
Height
5923 5922 5922 5921 5921 5920 5920 5920 5919 5918 5918 5918 5918 5918 5918 5919 5920 5920 5921 5921 5922 5922 5923 5924 5924 5925 5925 5926 5926 5926 5927 5928 5927 5927 5926 5926 5928 5934 5937 5932 5933 5928 5925 5925 5925 5924 5924
5920 5920 5919 5919 5918 5918 5918 5917 5916 5915 5915 5915 5915 5914 5915 5915 5915 5916 5916 5917 5918 5918 5919 5921 5922 5922 5923 5924 5925 5925 5927 5927 5928 5927 5927 5927 5929 5931 5934 5932 5928 5930 5927 5926 5926 5926 5926
5917 5917 5916 5915 5915 5915 5914 5913 5912 5912 5912 5911 5911 5911 5911 5911 5911 5912 5912 5913 5913 5914 5915 5917 5918 5919 5919 5922 5923 5924 5925 5927 5927 5928 5928 5928 5928 5930 5934 5932 5931 5929 5928 5927 5927 5927 5928
5914 5913 5913 5912 5912 5911 5910 5909 5908 5908 5908 5907 5908 5907 5907 5907 5907 5907 5907 5908 5908 5909 5910 5912 5913 5915 5915 5917 5919 5921 5923 5925 5926 5927 5928 5928 5929 5930 5932 5933 5930 5929 5928 5928 5929 5928 5928
5910 5910 5908 5908 5907 5907 5905 5905 5904 5903 5903 5903 5903 5903 5903 5902 5903 5903 5903 5903 5903 5904 5905 5907 5908 5909 5911 5912 5914 5916 5919 5922 5924 5926 5927 5928 5928 5930 5931 5931 5932 5932 5916 5932 5931 5931 5930
5906 5905 5904 5904 5903 5902 5901 5900 5899 5899 5898 5898 5898 5898 5898 5898 5898 5898 5898 5898 5898 5899 5899 5900 5902 5905 5905 5907 5909 5911 5914 5919 5922 5924 5925 5927 5928 5930 5933 5937 5920 5935 5939 5935 5929 5934 5932
5902 5901 5900 5900 5899 5897 5896 5895 5894 5894 5893 5893 5894 5894 5893 5893 5893 5893 5893 5894 5894 5894 5894 5895 5897 5897 5899 5901 5904 5905 5909 5914 5917 5920 5923 5925 5927 5931 5939 5940 5932 5938 5938 5938 5936 5934 5933
5898 5898 5897 5896 5895 5893 5891 5890 5889 5889 5888 5889 5889 5889 5889 5889 5888 5888 5889 5889 5888 5889 5889 5889 5890 5892 5894 5895 5898 5900 5904 5909 5913 5917 5919 5923 5925 5932 5937 5932 5933 5934 5938 5939 5936 5933 5933
5894 5894 5893 5893 5892 5891 5890 5889 5887 5887 5886 5886 5886 5885 5885 5885 5885 5885 5884 5885 5884 5884 5884 5884 5885 5886 5889 5890 5892 5895 5899 5904 5908 5912 5915 5920 5925 5928 5929 5929 5931 5934 5939 5933 5937 5932 5931
5891 5891 5891 5890 5889 5888 5888 5887 5886 5885 5885 5884 5884 5883 5883 5883 5884 5882 5882 5882 5881 5880 5880 5880 5881 5882 5884 5885 5887 5890 5894 5899 5902 5907 5911 5915 5920 5922 5924 5926 5930 5937 5935 5933 5933 5932 5932
5888 5888 5887 5886 5885 5884 5884 5883 5883 5883 5882 5882 5881 5881 5881 5880 5880 5880 5880 5880 5879 5879 5881 5877 5877 5879 5879 5882 5883 5886 5889 5892 5897 5902 5905 5912 5913 5917 5918 5924 5927 5933 5928 5930 5931 5931 5933
5885 5884 5883 5882 5881 5880 5879 5878 5878 5878 5878 5878 5877 5877 5877 5877 5877 5877 5877 5877 5877 5878 5877 5875 5874 5875 5876 5878 5880 5881 5885 5888 5893 5896 5900 5904 5910 5911 5915 5919 5922 5925 5927 5928 5930 5932 5935
5881 5879 5879 5878 5877 5875 5874 5873 5873 5872 5872 5872 5872 5872 5872 5872 5873 5873 5873 5873 5875 5875 5874 5873 5872 5872 5874 5876 5877 5879 5882 5885 5889 5893 5896 5900 5901 5906 5908 5911 5916 5919 5923 5929 5933 5935 5935
5876 5875 5873 5872 5871 5869 5869 5868 5867 5867 5867 5866 5866 5866 5866 5866 5867 5867 5868 5870 5871 5872 5871 5870 5871 5871 5871 5873 5876 5877 5878 5881 5884 5889 5896 5898 5900 5901 5902 5907 5914 5916 5921 5928 5932 5934 5935
5870 5868 5867 5865 5864 5863 5861 5860 5859 5859 5860 5859 5860 5860 5860 5860 5861 5861 5863 5863 5866 5866 5866 5867 5867 5869 5870 5873 5875 5874 5877 5880 5882 5885 5892 5898 5898 5900 5897 5902 5907 5913 5915 5923 5927 5927 5930
5862 5860 5859 5857 5856 5854 5852 5852 5851 5849 5850 5850 5850 5851 5852 5852 5853 5854 5855 5858 5858 5859 5861 5862 5864 5866 5870 5871 5871 5874 5875 5877 5881 5882 5885 5893 5892 5895 5894 5896 5899 5904 5916 5918 5920 5923 5924
5855 5853 5850 5848 5847 5845 5843 5841 5840 5838 5838 5839 5839 5839 5843 5843 5844 5845 5848 5850 5849 5851 5854 5857 5859 5862 5866 5873 5870 5873 5875 5877 5875 5877 5880 5885 5890 5892 5889 5890 5895 5899 5903 5908 5917 5921 5922
5846 5843 5841 5839 5836 5834 5832 5830 5829 5827 5825 5826 5827 5826 5831 5830 5833 5835 5837 5838 5840 5843 5846 5848 5852 5856 5857 5867 5868 5870 5873 5875 5872 5876 5876 5879 5886 5889 5888 5888 5889 5892 5898 5903 5909 5914 5917
5836 5834 5831 5828 5824 5822 5819 5816 5814 5812 5811 5810 5811 5812 5813 5816 5819 5821 5824 5825 5830 5833 5836 5840 5844 5848 5851 5855 5863 5867 5871 5872 5867 5870 5874 5877 5879 5885 5889 5889 5885 5886 5893 5899 5904 5910 5912
5827 5823 5820 5816 5812 5808 5805 5802 5800 5799 5797 5797 5797 5797 5798 5799 5802 5806 5807 5811 5819 5820 5824 5828 5834 5837 5842 5848 5852 5860 5866 5863 5863 5864 5866 5870 5876 5883 5888 5889 5887 5882 5885 5892 5899 5903 5908
5815 5811 5807 5803 5799 5796 5794 5792 5791 5791 5790 5790 5789 5789 5788 5788 5790 5793 5794 5798 5802 5806 5813 5816 5822 5828 5835 5840 5845 5851 5859 5861 5858 5859 5862 5865 5871 5878 5881 5883 5881 5882 5880 5884 5890 5896 5901
5804 5800 5796 5793 5791 5789 5787 5786 5784 5784 5783 5783 5782 5782 5782 5782 5781 5782 5783 5786 5787 5792 5797 5804 5811 5816 5823 5828 5837 5846 5851 5857 5855 5854 5857 5861 5866 5870 5874 5877 5875 5877 5881 5882 5885 5889 5892
5793 5789 5787 5785 5783 5782 5780 5778 5776 5775 5774 5773 5774 5773 5772 5774 5773 5773 5774 5775 5776 5779 5785 5793 5793 5798 5803 5811 5818 5823 5829 5836 5845 5850 5853 5858 5863 5868 5870 5872 5873 5874 5875 5880 5883 5885 5887
5783 5781 5779 5777 5776 5773 5771 5769 5767 5765 5764 5763 5762 5761 5761 5762 5762 5762 5762 5765 5767 5768 5773 5774 5780 5787 5795 5801 5810 5821 5827 5832 5837 5841 5852 5854 5858 5863 5866 5869 5869 5873 5875 5875 5877 5880 5882
5775 5773 5771 5769 5766 5763 5760 5757 5755 5752 5751 5750 5749 5748 5747 5748 5748 5749 5750 5750 5754 5757 5760 5763 5770 5775 5781 5792 5802 5811 5816 5823 5828 5834 5840 5845 5849 5858 5860 5862 5867 5868 5867 5869 5871 5873 5874
5767 5765 5762 5759 5755 5751 5748 5744 5742 5738 5735 5733 5731 5730 5730 5731 5729 5733 5736 5737 5739 5744 5749 5753 5757 5762 5771 5779 5785 5793 5802 5813 5820 5826 5832 5841 5848 5850 5855 5857 5858 5865 5863 5862 5863 5867 5863
5759 5756 5752 5747 5742 5738 5733 5728 5724 5720 5717 5713 5710 5708 5708 5710 5710 5713 5716 5721 5725 5730 5735 5739 5745 5755 5760 5767 5776 5785 5795 5805 5814 5820 5826 5831 5835 5843 5849 5848 5855 5845 5850 5854 5859 5864 5860
5751 5746 5740 5734 5729 5723 5717 5712 5707 5702 5697 5693 5689 5687 5686 5690 5691 5692 5695 5702 5707 5713 5718 5723 5738 5737 5746 5754 5765 5776 5784 5796 5806 5813 5819 5823 5828 5834 5841 5845 5846 5842 5845 5851 5852 5853 5855
5740 5734 5728 5721 5715 5707 5700 5694 5688 5682 5677 5674 5667 5664 5663 5666 5672 5673 5677 5683 5688 5695 5704 5712 5719 5728 5732 5744 5752 5759 5772 5786 5797 5804 5810 5817 5821 5828 5834 5842 5838 5831 5837 5843 5846 5848 5850